Time,TemperatureF,DewpointF,PressureIn,WindDirection,WindDirectionDegrees,WindSpeedMPH,WindSpeedGustMPH,Humidity,HourlyPrecipIn,Conditions,Clouds,dailyrainin,SoftwareType,DateUTC
2015-07-30 00:02:00,71.1,58.7,30.02,NW,324,0.0,0.0,65,0.00,,,0.00,Wunderground v.1.15,2015-07-30 05:02:00,
2015-07-30 00:07:00,70.9,59.0,30.02,NW,324,0.0,0.0,66,0.00,,,0.00,Wunderground v.1.15,2015-07-30 05:07:00,
2015-07-30 00:13:00,70.6,58.7,30.02,NW,324,0.0,0.0,66,0.00,,,0.00,Wunderground v.1.15,2015-07-30 05:13:00,
2015-07-30 00:18:00,70.4,58.9,30.02,NW,324,0.0,0.0,67,0.00,,,0.00,Wunderground v.1.15,2015-07-30 05:18:00,
2015-07-30 00:23:00,70.3,59.2,30.02,NW,324,0.0,0.0,68,0.00,,,0.00,Wunderground v.1.15,2015-07-30 05:23:00,
2015-07-30 00:28:00,70.1,59.5,30.02,NW,324,0.0,0.0,69,0.00,,,0.00,Wunderground v.1.15,2015-07-30 05:28:00,
2015-07-30 00:33:00,69.9,59.7,30.02,NW,324,0.0,0.0,70,0.00,,,0.00,Wunderground v.1.15,2015-07-30 05:33:00,
2015-07-30 00:39:00,69.8,60.0,30.02,NW,324,0.0,0.0,71,0.00,,,0.00,Wunderground v.1.15,2015-07-30 05:39:00,
2015-07-30 00:44:00,69.6,60.2,30.02,NW,324,0.0,0.0,72,0.00,,,0.00,Wunderground v.1.15,2015-07-30 05:44:00,
2015-07-30 00:50:00,69.3,60.3,30.02,NW,324,0.0,0.0,73,0.00,,,0.00,Wunderground v.1.15,2015-07-30 05:50:00,
2015-07-30 00:55:00,69.3,60.3,30.02,NW,324,0.0,0.0,73,0.00,,,0.00,Wunderground v.1.15,2015-07-30 05:55:00,
2015-07-30 01:00:00,69.1,60.5,30.02,NW,324,0.0,0.0,74,0.00,,,0.00,Wunderground v.1.15,2015-07-30 06:00:00,
2015-07-30 01:05:00,68.9,60.6,30.02,NW,324,0.0,0.0,75,0.00,,,0.00,Wunderground v.1.15,2015-07-30 06:05:00,
2015-07-30 01:10:00,68.8,60.9,30.02,NW,324,0.0,0.0,76,0.00,,,0.00,Wunderground v.1.15,2015-07-30 06:10:00,
2015-07-30 01:21:00,68.4,60.9,30.03,NW,324,0.0,0.0,77,0.00,,,0.00,Wunderground v.1.15,2015-07-30 06:21:00,
2015-07-30 01:26:00,68.4,61.3,30.03,NW,324,0.0,0.0,78,0.00,,,0.00,Wunderground v.1.15,2015-07-30 06:26:00,
2015-07-30 01:31:00,68.3,61.2,30.03,NW,324,0.0,0.0,78,0.00,,,0.00,Wunderground v.1.15,2015-07-30 06:31:00,
2015-07-30 01:37:00,68.1,61.3,30.03,NW,324,0.0,0.0,79,0.00,,,0.00,Wunderground v.1.15,2015-07-30 06:37:00,
2015-07-30 01:42:00,68.1,61.3,30.03,NW,324,0.0,0.0,79,0.00,,,0.00,Wunderground v.1.15,2015-07-30 06:42:00,
2015-07-30 01:48:00,68.1,61.7,30.03,NW,324,0.0,0.0,80,0.00,,,0.00,Wunderground v.1.15,2015-07-30 06:48:00,
2015-07-30 01:53:00,67.9,61.5,30.02,NW,324,0.0,0.0,80,0.00,,,0.00,Wunderground v.1.15,2015-07-30 06:53:00,
2015-07-30 01:59:00,67.9,61.5,30.02,NW,324,0.0,0.0,80,0.00,,,0.00,Wunderground v.1.15,2015-07-30 06:59:00,
2015-07-30 02:04:00,67.8,61.4,30.02,NW,324,0.0,0.0,80,0.00,,,0.00,Wunderground v.1.15,2015-07-30 07:04:00,
2015-07-30 02:14:00,67.6,61.2,30.02,NW,324,0.0,0.0,80,0.00,,,0.00,Wunderground v.1.15,2015-07-30 07:14:00,
2015-07-30 02:19:00,67.6,61.2,30.01,NW,324,0.0,0.0,80,0.00,,,0.00,Wunderground v.1.15,2015-07-30 07:19:00,
2015-07-30 02:24:00,67.4,61.0,30.01,NW,324,0.0,0.0,80,0.00,,,0.00,Wunderground v.1.15,2015-07-30 07:24:00,
2015-07-30 02:29:00,67.4,61.0,30.01,NW,324,0.0,0.0,80,0.00,,,0.00,Wunderground v.1.15,2015-07-30 07:29:00,
2015-07-30 02:34:00,67.3,60.9,30.01,NW,324,0.0,0.0,80,0.00,,,0.00,Wunderground v.1.15,2015-07-30 07:34:00,
2015-07-30 02:39:00,67.3,60.9,30.01,NW,324,0.0,0.0,80,0.00,,,0.00,Wunderground v.1.15,2015-07-30 07:39:00,
2015-07-30 02:44:00,67.1,60.7,30.01,NW,324,0.0,0.0,80,0.00,,,0.00,Wunderground v.1.15,2015-07-30 07:44:00,
2015-07-30 02:49:00,67.1,60.4,30.02,NW,324,0.0,0.0,79,0.00,,,0.00,Wunderground v.1.15,2015-07-30 07:49:00,
2015-07-30 02:54:00,67.1,60.4,30.02,NW,324,0.0,0.0,79,0.00,,,0.00,Wunderground v.1.15,2015-07-30 07:54:00,
2015-07-30 02:59:00,66.9,60.2,30.02,NW,324,0.0,0.0,79,0.00,,,0.00,Wunderground v.1.15,2015-07-30 07:59:00,
2015-07-30 03:09:00,66.6,59.9,30.02,NW,324,0.0,0.0,79,0.00,,,0.00,Wunderground v.1.15,2015-07-30 08:09:00,
2015-07-30 03:14:00,66.6,59.9,30.02,NW,324,0.0,0.0,79,0.00,,,0.00,Wunderground v.1.15,2015-07-30 08:14:00,
2015-07-30 03:19:00,66.4,59.7,30.02,NW,324,0.0,0.0,79,0.00,,,0.00,Wunderground v.1.15,2015-07-30 08:19:00,
2015-07-30 03:24:00,66.4,59.7,30.02,NW,324,0.0,0.0,79,0.00,,,0.00,Wunderground v.1.15,2015-07-30 08:24:00,
2015-07-30 03:29:00,66.3,59.6,30.02,NW,324,0.0,0.0,79,0.00,,,0.00,Wunderground v.1.15,2015-07-30 08:29:00,
2015-07-30 03:34:00,66.3,59.6,30.01,NW,324,0.0,0.0,79,0.00,,,0.00,Wunderground v.1.15,2015-07-30 08:34:00,
2015-07-30 03:39:00,66.1,59.4,30.01,NW,324,0.0,0.0,79,0.00,,,0.00,Wunderground v.1.15,2015-07-30 08:39:00,
2015-07-30 03:44:00,66.1,59.4,30.01,NW,324,0.0,0.0,79,0.00,,,0.00,Wunderground v.1.15,2015-07-30 08:44:00,
2015-07-30 03:49:00,66.0,59.3,30.02,NW,324,0.0,0.0,79,0.00,,,0.00,Wunderground v.1.15,2015-07-30 08:49:00,
2015-07-30 03:54:00,66.0,59.3,30.02,NW,324,0.0,0.0,79,0.00,,,0.00,Wunderground v.1.15,2015-07-30 08:54:00,
2015-07-30 03:59:00,65.8,59.1,30.02,NW,324,0.0,0.0,79,0.00,,,0.00,Wunderground v.1.15,2015-07-30 08:59:00,
2015-07-30 04:04:00,65.8,59.5,30.02,NW,324,0.0,0.0,80,0.00,,,0.00,Wunderground v.1.15,2015-07-30 09:04:00,
2015-07-30 04:09:00,65.6,59.3,30.02,NW,324,0.0,0.0,80,0.00,,,0.00,Wunderground v.1.15,2015-07-30 09:09:00,
2015-07-30 04:14:00,65.6,59.3,30.02,NW,324,0.0,0.0,80,0.00,,,0.00,Wunderground v.1.15,2015-07-30 09:14:00,
2015-07-30 04:19:00,65.6,59.6,30.02,NW,324,0.0,0.0,81,0.00,,,0.00,Wunderground v.1.15,2015-07-30 09:19:00,
2015-07-30 04:24:00,65.5,59.5,30.02,NW,324,0.0,0.0,81,0.00,,,0.00,Wunderground v.1.15,2015-07-30 09:24:00,
2015-07-30 04:34:00,65.5,59.5,30.03,NW,324,0.0,0.0,81,0.00,,,0.00,Wunderground v.1.15,2015-07-30 09:34:00,
2015-07-30 04:39:00,65.3,59.3,30.03,NW,324,0.0,0.0,81,0.00,,,0.00,Wunderground v.1.15,2015-07-30 09:39:00,
2015-07-30 04:44:00,65.3,59.7,30.03,NW,324,0.0,0.0,82,0.00,,,0.00,Wunderground v.1.15,2015-07-30 09:44:00,
2015-07-30 04:49:00,65.3,59.7,30.03,NW,324,0.0,0.0,82,0.00,,,0.00,Wunderground v.1.15,2015-07-30 09:49:00,
2015-07-30 04:54:00,65.3,59.7,30.03,NW,324,0.0,0.0,82,0.00,,,0.00,Wunderground v.1.15,2015-07-30 09:54:00,
2015-07-30 05:00:00,65.2,59.9,30.03,NW,324,0.0,0.0,83,0.00,,,0.00,Wunderground v.1.15,2015-07-30 10:00:00,
2015-07-30 05:05:00,65.2,59.9,30.03,NW,324,0.0,0.0,83,0.00,,,0.00,Wunderground v.1.15,2015-07-30 10:05:00,
2015-07-30 05:10:00,65.2,59.9,30.03,NW,324,0.0,0.0,83,0.00,,,0.00,Wunderground v.1.15,2015-07-30 10:10:00,
2015-07-30 05:15:00,65.2,59.9,30.03,NW,324,0.0,0.0,83,0.00,,,0.00,Wunderground v.1.15,2015-07-30 10:15:00,
2015-07-30 05:20:00,65.2,59.9,30.03,NW,324,0.0,0.0,83,0.00,,,0.00,Wunderground v.1.15,2015-07-30 10:20:00,
2015-07-30 05:25:00,65.2,59.9,30.03,NW,324,0.0,0.0,83,0.00,,,0.00,Wunderground v.1.15,2015-07-30 10:25:00,
2015-07-30 05:30:00,65.2,59.9,30.03,NW,324,0.0,0.0,83,0.00,,,0.00,Wunderground v.1.15,2015-07-30 10:30:00,
2015-07-30 05:35:00,65.2,59.9,30.03,NW,324,0.0,0.0,83,0.00,,,0.00,Wunderground v.1.15,2015-07-30 10:35:00,
2015-07-30 05:40:00,65.2,59.9,30.03,NW,324,0.0,0.0,83,0.00,,,0.00,Wunderground v.1.15,2015-07-30 10:40:00,
2015-07-30 05:45:00,65.2,59.9,30.03,NW,324,0.0,0.0,83,0.00,,,0.00,Wunderground v.1.15,2015-07-30 10:45:00,
2015-07-30 05:50:00,65.2,60.2,30.03,NW,324,0.0,0.0,84,0.00,,,0.00,Wunderground v.1.15,2015-07-30 10:50:00,
2015-07-30 05:55:00,65.2,59.9,30.03,NW,324,0.0,0.0,83,0.00,,,0.00,Wunderground v.1.15,2015-07-30 10:55:00,
2015-07-30 06:00:00,65.0,60.0,30.03,NW,324,0.0,0.0,84,0.00,,,0.00,Wunderground v.1.15,2015-07-30 11:00:00,
2015-07-30 06:05:00,65.0,60.0,30.04,NW,324,0.0,0.0,84,0.00,,,0.00,Wunderground v.1.15,2015-07-30 11:05:00,
2015-07-30 06:10:00,65.0,60.0,30.04,NW,324,0.0,0.0,84,0.00,,,0.00,Wunderground v.1.15,2015-07-30 11:10:00,
2015-07-30 06:15:00,65.0,60.0,30.04,NW,324,0.0,1.0,84,0.00,,,0.00,Wunderground v.1.15,2015-07-30 11:15:00,
2015-07-30 06:20:00,65.0,60.0,30.05,NW,324,0.0,0.0,84,0.00,,,0.00,Wunderground v.1.15,2015-07-30 11:20:00,
2015-07-30 06:25:00,65.0,60.0,30.05,NW,324,0.0,0.0,84,0.00,,,0.00,Wunderground v.1.15,2015-07-30 11:25:00,
2015-07-30 06:30:00,65.0,60.0,30.05,NW,324,0.0,0.0,84,0.00,,,0.00,Wunderground v.1.15,2015-07-30 11:30:00,
2015-07-30 06:35:00,65.0,60.0,30.05,NW,324,0.0,0.0,84,0.00,,,0.00,Wunderground v.1.15,2015-07-30 11:35:00,
2015-07-30 06:40:00,65.0,60.0,30.05,NW,324,0.0,0.0,84,0.00,,,0.00,Wunderground v.1.15,2015-07-30 11:40:00,
2015-07-30 06:45:00,65.0,60.0,30.05,NW,324,0.0,0.0,84,0.00,,,0.00,Wunderground v.1.15,2015-07-30 11:45:00,
2015-07-30 06:50:00,65.0,60.0,30.05,NW,324,0.0,0.0,84,0.00,,,0.00,Wunderground v.1.15,2015-07-30 11:50:00,
2015-07-30 06:55:00,65.0,60.0,30.05,NW,324,0.0,0.0,84,0.00,,,0.00,Wunderground v.1.15,2015-07-30 11:55:00,
2015-07-30 07:00:00,65.2,60.6,30.05,NW,324,0.0,0.0,85,0.00,,,0.00,Wunderground v.1.15,2015-07-30 12:00:00,
2015-07-30 07:10:00,65.5,60.9,30.05,NW,324,0.0,0.0,85,0.00,,,0.00,Wunderground v.1.15,2015-07-30 12:10:00,
2015-07-30 07:15:00,65.6,61.0,30.05,NW,324,0.0,1.0,85,0.00,,,0.00,Wunderground v.1.15,2015-07-30 12:15:00,
2015-07-30 07:20:00,66.0,61.4,30.05,NW,324,0.0,1.0,85,0.00,,,0.00,Wunderground v.1.15,2015-07-30 12:20:00,
2015-07-30 07:25:00,66.3,61.3,30.05,NW,324,0.0,2.0,84,0.00,,,0.00,Wunderground v.1.15,2015-07-30 12:25:00,
2015-07-30 07:30:00,66.6,61.6,30.05,NW,324,4.0,4.0,84,0.00,,,0.00,Wunderground v.1.15,2015-07-30 12:30:00,
2015-07-30 07:40:00,67.4,61.7,30.05,NW,324,0.0,0.0,82,0.00,,,0.00,Wunderground v.1.15,2015-07-30 12:40:00,
2015-07-30 07:45:00,67.8,61.8,30.05,NW,324,0.0,3.0,81,0.00,,,0.00,Wunderground v.1.15,2015-07-30 12:45:00,
2015-07-30 07:50:00,68.3,62.2,30.05,NW,324,0.0,1.0,81,0.00,,,0.00,Wunderground v.1.15,2015-07-30 12:50:00,
2015-07-30 07:55:00,69.9,62.0,30.05,NW,324,0.0,3.0,76,0.00,,,0.00,Wunderground v.1.15,2015-07-30 12:55:00,
2015-07-30 08:01:00,71.3,62.2,30.05,NW,324,0.0,1.0,73,0.00,,,0.00,Wunderground v.1.15,2015-07-30 13:01:00,
2015-07-30 08:06:00,72.0,61.7,30.05,NW,324,0.0,2.0,70,0.00,,,0.00,Wunderground v.1.15,2015-07-30 13:06:00,
2015-07-30 08:11:00,72.3,61.1,30.05,NW,324,0.0,2.0,68,0.00,,,0.00,Wunderground v.1.15,2015-07-30 13:11:00,
2015-07-30 08:16:00,72.8,62.0,30.05,NW,324,0.0,2.0,69,0.00,,,0.00,Wunderground v.1.15,2015-07-30 13:16:00,
2015-07-30 08:21:00,73.2,61.6,30.06,NW,309,0.0,0.0,67,0.00,,,0.00,Wunderground v.1.15,2015-07-30 13:21:00,
2015-07-30 08:26:00,73.7,62.1,30.06,NW,309,0.0,2.0,67,0.00,,,0.00,Wunderground v.1.15,2015-07-30 13:26:00,
2015-07-30 08:31:00,73.9,61.8,30.06,NW,309,0.0,0.0,66,0.00,,,0.00,Wunderground v.1.15,2015-07-30 13:31:00,
2015-07-30 08:36:00,74.6,61.6,30.06,NW,309,0.0,2.0,64,0.00,,,0.00,Wunderground v.1.15,2015-07-30 13:36:00,
2015-07-30 08:41:00,74.7,62.1,30.06,NW,323,0.0,2.0,65,0.00,,,0.00,Wunderground v.1.15,2015-07-30 13:41:00,
2015-07-30 08:46:00,75.4,61.5,30.06,NW,305,0.0,2.0,62,0.00,,,0.00,Wunderground v.1.15,2015-07-30 13:46:00,
2015-07-30 08:51:00,76.1,62.6,30.07,NW,305,2.0,2.0,63,0.00,,,0.00,Wunderground v.1.15,2015-07-30 13:51:00,
2015-07-30 08:56:00,76.7,62.2,30.07,NW,305,0.0,2.0,61,0.00,,,0.00,Wunderground v.1.15,2015-07-30 13:56:00,
2015-07-30 09:01:00,77.2,61.3,30.07,NNW,327,0.0,0.0,58,0.00,,,0.00,Wunderground v.1.15,2015-07-30 14:01:00,
2015-07-30 09:06:00,77.9,61.4,30.07,NNW,327,2.0,2.0,57,0.00,,,0.00,Wunderground v.1.15,2015-07-30 14:06:00,
2015-07-30 09:11:00,77.9,61.4,30.07,West,281,0.0,3.0,57,0.00,,,0.00,Wunderground v.1.15,2015-07-30 14:11:00,
2015-07-30 09:16:00,78.5,62.0,30.07,ENE,70,1.0,3.0,57,0.00,,,0.00,Wunderground v.1.15,2015-07-30 14:16:00,
2015-07-30 09:21:00,78.8,61.8,30.07,ENE,69,0.0,0.0,56,0.00,,,0.00,Wunderground v.1.15,2015-07-30 14:21:00,
2015-07-30 09:26:00,79.0,61.5,30.07,WNW,296,2.0,4.0,55,0.00,,,0.00,Wunderground v.1.15,2015-07-30 14:26:00,
2015-07-30 09:31:00,79.0,62.0,30.07,WNW,296,0.0,2.0,56,0.00,,,0.00,Wunderground v.1.15,2015-07-30 14:31:00,
2015-07-30 09:36:00,79.6,62.0,30.07,NW,308,0.0,2.0,55,0.00,,,0.00,Wunderground v.1.15,2015-07-30 14:36:00,
2015-07-30 09:41:00,80.3,61.6,30.07,NW,308,0.0,0.0,53,0.00,,,0.00,Wunderground v.1.15,2015-07-30 14:41:00,
2015-07-30 09:46:00,80.7,60.3,30.07,NW,310,0.0,1.0,50,0.00,,,0.00,Wunderground v.1.15,2015-07-30 14:46:00,
2015-07-30 09:51:00,81.1,61.3,30.07,NW,310,0.0,1.0,51,0.00,,,0.00,Wunderground v.1.15,2015-07-30 14:51:00,
2015-07-30 09:57:00,80.7,60.9,30.07,NW,310,0.0,1.0,51,0.00,,,0.00,Wunderground v.1.15,2015-07-30 14:57:00,
2015-07-30 10:02:00,81.2,61.4,30.07,NW,310,0.0,0.0,51,0.00,,,0.00,Wunderground v.1.15,2015-07-30 15:02:00,
2015-07-30 10:07:00,83.2,61.5,30.07,NW,310,0.0,1.0,48,0.00,,,0.00,Wunderground v.1.15,2015-07-30 15:07:00,
2015-07-30 10:17:00,82.4,60.7,30.07,NW,310,0.0,1.0,48,0.00,,,0.00,Wunderground v.1.15,2015-07-30 15:17:00,
2015-07-30 10:22:00,82.6,59.7,30.07,NW,310,0.0,1.0,46,0.00,,,0.00,Wunderground v.1.15,2015-07-30 15:22:00,
2015-07-30 10:27:00,84.0,60.4,30.07,NW,310,0.0,1.0,45,0.00,,,0.00,Wunderground v.1.15,2015-07-30 15:27:00,